Hourly Weather Aberdeen

Today, 12 August, Wednesday

Time Temperature Precipitation Wind Pressure Humidity
00:00 +17°C° 0 mm 2 mps 755 mmHg 97%
01:00 +17°C° 0.4 mm 2 mps 755 mmHg 97%
02:00 +18°C° 0.4 mm 1 mps 754 mmHg 97%
03:00 +18°C° 0.4 mm 1 mps 754 mmHg 97%
04:00 +18°C° 0.5 mm 1 mps 754 mmHg 97%
05:00 +18°C° 0.5 mm 1 mps 754 mmHg 96%
06:00 +18°C° 0 mm 2 mps 754 mmHg 98%
07:00 +19°C° 0.2 mm 2 mps 754 mmHg 94%
08:00 +20°C° 0.2 mm 2 mps 754 mmHg 91%
09:00 +21°C° 0.2 mm 2 mps 754 mmHg 88%
10:00 +21°C° 0 mm 2 mps 754 mmHg 85%
11:00 +23°C° 0 mm 1 mps 754 mmHg 83%
12:00 +24°C° 0 mm 1 mps 754 mmHg 81%
13:00 +24°C° 0 mm 1 mps 754 mmHg 80%
14:00 +25°C° 0 mm 1 mps 754 mmHg 78%
15:00 +25°C° 0 mm 1 mps 754 mmHg 76%
16:00 +24°C° 0.1 mm 2 mps 754 mmHg 80%
17:00 +24°C° 0.1 mm 2 mps 754 mmHg 84%
18:00 +23°C° 0.1 mm 2 mps 754 mmHg 88%
19:00 +21°C° 0 mm 2 mps 754 mmHg 91%
20:00 +20°C° 0 mm 1 mps 754 mmHg 94%
21:00 +19°C° 0 mm 1 mps 754 mmHg 97%
22:00 +19°C° 0 mm 1 mps 754 mmHg 97%
23:00 +18°C° 0 mm 2 mps 754 mmHg 96%

Tomorrow, 13 August, Thursday

Time Temperature Precipitation Wind Pressure Humidity
00:00 +17°C° 0 mm 2 mps 754 mmHg 96%
01:00 +17°C° 0 mm 2 mps 754 mmHg 96%
02:00 +17°C° 0 mm 2 mps 754 mmHg 96%
03:00 +17°C° 0 mm 2 mps 754 mmHg 96%
04:00 +17°C° 0 mm 2 mps 754 mmHg 95%
05:00 +17°C° 0 mm 2 mps 755 mmHg 94%
06:00 +17°C° 0 mm 2 mps 755 mmHg 93%
07:00 +18°C° 0 mm 2 mps 755 mmHg 90%
08:00 +18°C° 0 mm 2 mps 755 mmHg 87%
09:00 +19°C° 0 mm 2 mps 755 mmHg 84%
10:00 +20°C° 0 mm 2 mps 755 mmHg 82%
11:00 +20°C° 0 mm 3 mps 755 mmHg 81%
12:00 +21°C° 0 mm 3 mps 755 mmHg 79%
13:00 +21°C° 0 mm 3 mps 755 mmHg 79%
14:00 +21°C° 0 mm 4 mps 755 mmHg 79%
15:00 +21°C° 0 mm 4 mps 755 mmHg 80%
16:00 +20°C° 0 mm 4 mps 755 mmHg 82%
17:00 +19°C° 0 mm 4 mps 755 mmHg 84%
18:00 +18°C° 0 mm 4 mps 755 mmHg 87%
19:00 +17°C° 0 mm 3 mps 755 mmHg 89%
20:00 +16°C° 0 mm 3 mps 756 mmHg 90%
21:00 +16°C° 0 mm 3 mps 756 mmHg 92%
22:00 +16°C° 0 mm 2 mps 756 mmHg 92%
23:00 +15°C° 0 mm 2 mps 756 mmHg 91%

Day after tomorrow, 14 August, Friday

Time Temperature Precipitation Wind Pressure Humidity
00:00 +15°C° 0 mm 2 mps 755 mmHg 90%
01:00 +15°C° 0 mm 2 mps 755 mmHg 90%
02:00 +15°C° 0 mm 2 mps 755 mmHg 91%
03:00 +14°C° 0 mm 2 mps 755 mmHg 91%
04:00 +15°C° 0 mm 2 mps 755 mmHg 90%
05:00 +15°C° 0 mm 2 mps 755 mmHg 90%
06:00 +15°C° 0 mm 2 mps 755 mmHg 89%
07:00 +16°C° 0 mm 2 mps 755 mmHg 86%
08:00 +16°C° 0 mm 2 mps 755 mmHg 84%
09:00 +17°C° 0 mm 2 mps 755 mmHg 81%
10:00 +17°C° 0 mm 2 mps 755 mmHg 80%
11:00 +18°C° 0 mm 2 mps 755 mmHg 80%
12:00 +18°C° 0 mm 3 mps 755 mmHg 79%
13:00 +18°C° 0 mm 2 mps 755 mmHg 79%
14:00 +18°C° 0 mm 2 mps 755 mmHg 79%
15:00 +18°C° 0 mm 2 mps 755 mmHg 79%
16:00 +18°C° 0 mm 2 mps 755 mmHg 80%
17:00 +17°C° 0 mm 2 mps 755 mmHg 82%
18:00 +17°C° 0 mm 2 mps 755 mmHg 83%
19:00 +16°C° 0 mm 2 mps 755 mmHg 86%
20:00 +15°C° 0 mm 1 mps 756 mmHg 89%
21:00 +14°C° 0 mm 1 mps 756 mmHg 93%
22:00 +14°C° 0 mm 1 mps 756 mmHg 92%
23:00 +14°C° 0 mm 1 mps 756 mmHg 92%

15 August, Saturday

Time Temperature Precipitation Wind Pressure Humidity
00:00 +13°C° 0 mm 0 mps 756 mmHg 92%
01:00 +12°C° 0 mm 0 mps 756 mmHg 93%
02:00 +12°C° 0 mm 0 mps 756 mmHg 93%
03:00 +12°C° 0 mm 0 mps 756 mmHg 94%
04:00 +12°C° 0 mm 0 mps 755 mmHg 94%
05:00 +12°C° 0 mm 0 mps 755 mmHg 93%
06:00 +13°C° 0 mm 0 mps 755 mmHg 93%
07:00 +15°C° 0 mm 1 mps 755 mmHg 89%
08:00 +16°C° 0 mm 1 mps 756 mmHg 84%
09:00 +18°C° 0 mm 1 mps 756 mmHg 79%
10:00 +18°C° 0 mm 2 mps 756 mmHg 76%
11:00 +19°C° 0 mm 2 mps 756 mmHg 73%
12:00 +20°C° 0 mm 2 mps 755 mmHg 71%
13:00 +20°C° 0 mm 3 mps 755 mmHg 71%
14:00 +20°C° 0 mm 3 mps 755 mmHg 72%
15:00 +20°C° 0 mm 3 mps 755 mmHg 72%
16:00 +19°C° 0 mm 3 mps 755 mmHg 76%
17:00 +18°C° 0 mm 2 mps 755 mmHg 79%
18:00 +17°C° 0 mm 2 mps 754 mmHg 83%
19:00 +16°C° 0 mm 2 mps 755 mmHg 87%
20:00 +15°C° 0 mm 2 mps 755 mmHg 91%
21:00 +13°C° 0 mm 1 mps 755 mmHg 95%
22:00 +13°C° 0 mm 1 mps 755 mmHg 95%
23:00 +13°C° 0 mm 1 mps 755 mmHg 95%

16 August, Sunday

Time Temperature Precipitation Wind Pressure Humidity
00:00 +13°C° 0 mm 1 mps 754 mmHg 95%
01:00 +13°C° 0 mm 1 mps 754 mmHg 94%
02:00 +13°C° 0 mm 1 mps 754 mmHg 93%
03:00 +13°C° 0 mm 1 mps 754 mmHg 93%
04:00 +13°C° 0 mm 1 mps 753 mmHg 92%
05:00 +14°C° 0 mm 1 mps 753 mmHg 91%
06:00 +14°C° 0 mm 1 mps 753 mmHg 90%
07:00 +15°C° 0 mm 2 mps 753 mmHg 84%
08:00 +16°C° 0 mm 2 mps 753 mmHg 78%
09:00 +17°C° 0 mm 2 mps 753 mmHg 73%
10:00 +18°C° 0 mm 3 mps 753 mmHg 69%
11:00 +18°C° 0 mm 3 mps 753 mmHg 65%
12:00 +19°C° 0 mm 4 mps 752 mmHg 62%
13:00 +19°C° 0 mm 4 mps 752 mmHg 63%
14:00 +18°C° 0 mm 4 mps 752 mmHg 65%
15:00 +18°C° 0 mm 4 mps 751 mmHg 66%
16:00 +17°C° 0.1 mm 4 mps 751 mmHg 72%
17:00 +16°C° 0.1 mm 3 mps 750 mmHg 77%
18:00 +14°C° 0.1 mm 3 mps 750 mmHg 83%
19:00 +14°C° 0.1 mm 3 mps 750 mmHg 85%
20:00 +14°C° 0.1 mm 3 mps 750 mmHg 87%
21:00 +14°C° 0.1 mm 2 mps 749 mmHg 89%
22:00 +14°C° 0.1 mm 2 mps 749 mmHg 90%
23:00 +13°C° 0.1 mm 3 mps 748 mmHg 91%

17 August, Monday

Time Temperature Precipitation Wind Pressure Humidity
00:00 +13°C° 0.1 mm 3 mps 748 mmHg 92%
01:00 +13°C° 0.1 mm 3 mps 748 mmHg 93%
02:00 +13°C° 0.1 mm 3 mps 747 mmHg 93%
03:00 +13°C° 0.1 mm 3 mps 747 mmHg 94%
04:00 +14°C° 0 mm 2 mps 746 mmHg 93%
05:00 +14°C° 0 mm 2 mps 746 mmHg 93%
06:00 +15°C° 0 mm 1 mps 746 mmHg 92%
07:00 +15°C° 0 mm 2 mps 745 mmHg 92%
08:00 +16°C° 0 mm 2 mps 745 mmHg 91%
09:00 +16°C° 0 mm 2 mps 745 mmHg 91%
10:00 +17°C° 0 mm 2 mps 745 mmHg 91%
11:00 +17°C° 0 mm 2 mps 745 mmHg 91%
12:00 +18°C° 0 mm 2 mps 744 mmHg 90%
13:00 +18°C° 0.2 mm 2 mps 744 mmHg 90%
14:00 +19°C° 0.2 mm 3 mps 744 mmHg 89%
15:00 +19°C° 0.2 mm 3 mps 743 mmHg 88%
16:00 +19°C° 0.4 mm 3 mps 743 mmHg 89%
17:00 +18°C° 0.4 mm 3 mps 742 mmHg 91%
18:00 +18°C° 0.4 mm 3 mps 742 mmHg 92%
19:00 +17°C° 0.3 mm 2 mps 742 mmHg 94%
20:00 +17°C° 0.3 mm 2 mps 741 mmHg 96%
21:00 +16°C° 0.3 mm 1 mps 741 mmHg 98%
22:00 +16°C° 0.1 mm 1 mps 741 mmHg 98%
23:00 +16°C° 0.1 mm 1 mps 741 mmHg 98%
Show more